SCP
0 0 0 0 0 0 0 0 0 0 0 0 0 0 0 0 0 0 0 0 0 0 0 0 1 3 6 7 5 4 3 3 2 1 1 0 0 0 0 0 0 0 0 0
0 0 0 0 0 0 0 0 0 0 0 0 0 0 0 0 0 0 0 0 0 0 0 0 1 2 5 6 5 4 4 3 2 1 1 0 0 0 0 0 0 0 0 0
0 0 0 0 0 0 0 0 0 0 0 0 0 0 0 0 0 0 0 0 0 0 0 0 0 1 4 6 6 4 4 4 3 2 1 1 0 0 0 0 0 0 0 0
0 0 0 0 0 0 0 0 0 0 0 0 0 0 0 0 0 0 0 0 0 0 0 0 0 1 2 5 6 5 4 4 4 3 2 1 1 0 0 0 0 0 0 0
0 0 0 0 0 0 0 0 0 0 0 0 0 0 0 0 0 0 0 0 0 0 0 0 0 1 1 4 6 5 4 4 4 3 2 1 1 0 0 0 0 0 0 0
0 0 0 0 0 0 0 0 0 0 0 0 0 0 0 0 0 0 0 0 0 0 0 0 0 1 1 3 6 6 5 4 4 3 2 1 1 1 0 0 0 0 0 0
0 0 0 0 0 0 0 0 0 0 0 0 0 0 0 0 0 0 0 0 0 0 0 0 0 1 1 3 5 6 5 5 4 4 3 2 1 1 1 0 0 0 0 0
0 0 0 0 0 0 0 0 0 0 0 0 0 0 0 0 0 0 0 0 0 0 0 0 0 0 1 3 5 6 5 5 5 4 3 2 2 1 1 1 0 0 0 0
0 0 0 0 0 0 0 0 0 0 0 0 0 0 0 0 0 0 0 0 0 0 0 0 0 0 1 2 5 6 5 4 5 4 4 3 2 2 1 1 0 0 0 0
0 0 0 0 0 0 0 0 0 0 0 0 0 0 0 0 0 0 0 0 0 0 0 0 0 0 0 2 5 5 4 3 3 4 4 3 2 2 1 1 1 0 0 0
0 0 0 0 0 0 0 0 0 0 0 0 0 0 0 0 0 0 0 0 0 0 0 0 0 0 0 2 4 5 4 3 3 3 3 3 2 2 1 1 1 0 0 0
0 0 0 0 0 0 0 0 0 0 0 0 0 0 0 0 0 0 0 0 0 0 0 0 0 0 0 2 4 5 4 3 2 2 3 2 2 2 1 1 1 0 0 0
0 0 0 0 0 0 0 0 0 0 0 0 0 0 0 0 0 0 0 0 0 0 0 0 0 0 1 2 3 4 3 3 2 2 2 2 2 2 1 1 0 0 0 0
0 0 0 0 0 0 0 0 0 0 0 0 0 0 0 0 0 0 0 0 0 0 0 0 0 0 1 2 3 3 3 2 2 2 2 2 1 1 1 1 0 0 0 0
0 0 0 0 0 0 0 0 0 0 0 0 0 0 0 0 0 0 0 0 0 0 0 0 0 0 1 2 2 3 3 2 2 1 1 1 1 1 1 1 1 0 0 0
0 0 0 0 0 0 0 0 0 0 0 0 0 0 0 0 0 0 0 0 0 0 0 0 0 1 1 2 2 2 2 2 1 1 1 1 1 1 1 1 1 0 0 0
0 0 0 0 0 0 0 0 0 0 0 0 0 0 0 0 0 0 0 0 0 0 0 0 0 1 1 2 2 2 2 2 1 1 1 1 1 1 1 1 1 0 0 0
0 0 0 0 0 0 0 0 0 0 0 0 0 0 0 0 0 0 0 0 0 0 0 0 0 0 1 1 1 1 2 2 1 1 0 0 1 1 1 1 1 0 0 0
0 0 0 0 0 0 0 0 0 0 0 0 0 0 0 0 0 0 0 0 0 0 0 0 0 0 0 1 1 1 1 1 1 1 0 0 0 0 0 0 1 0 0 0
0 0 0 0 0 0 0 0 0 0 0 0 0 0 0 0 0 0 0 0 0 0 0 0 0 0 0 0 1 1 1 1 1 0 0 0 0 0 0 0 0 0 0 0
0 0 0 0 0 0 0 0 0 0 0 0 0 0 0 0 0 0 0 0 0 0 0 0 0 0 0 0 0 0 0 0 0 0 0 0 0 0 0 0 0 0 0 0
0 0 0 0 0 0 0 0 0 0 0 0 0 0 0 0 0 0 0 0 0 0 0 0 0 0 0 0 0 0 0 0 0 0 0 0 0 0 0 0 0 0 0 0
0 0 0 0 0 0 0 0 0 0 0 0 0 0 0 0 0 0 0 0 0 0 0 0 0 0 0 0 0 0 0 0 0 0 0 0 0 0 0 0 0 0 0 0
0 0 0 0 0 0 0 0 0 0 0 0 0 0 0 0 0 0 0 0 0 0 0 0 0 0 0 0 0 0 0 0 0 0 0 0 0 0 0 0 0 0 0 0
0 0 0 0 0 0 0 0 0 0 0 0 0 0 0 0 0 0 0 0 0 0 0 0 0 0 0 0 0 0 0 0 0 0 0 0 0 0 0 0 0 0 0 0
0 0 0 0 0 0 0 0 0 0 0 0 0 0 0 0 0 0 0 0 0 0 0 0 0 0 0 0 0 0 0 0 0 0 0 0 0 0 0 0 0 0 0 0
Wind_Speed
3 4 8 10 12 10 8 9 11 10 7 8 13 15 14 10 9 11 11 11 12 15 16 15 17 17 17 17 18 19 18 18 15 13 13 12 12 10 9 9 11 12 11 11
3 9 11 8 9 10 11 13 14 12 9 9 11 15 13 12 13 11 13 14 14 13 12 13 15 16 19 21 21 21 20 20 19 15 13 10 8 7 7 7 9 12 12 12
8 7 5 8 10 11 11 12 11 11 9 8 9 13 14 12 12 12 12 13 14 16 16 15 16 17 19 21 23 21 22 21 20 16 9 7 5 4 6 9 10 11 12 12
6 7 8 9 11 11 12 9 10 10 7 6 7 9 11 11 13 15 15 13 14 14 15 15 16 17 19 22 22 22 23 22 20 17 15 16 13 12 13 10 9 10 12 12
6 4 6 9 11 10 8 6 7 8 6 7 7 8 9 7 13 16 16 15 14 14 14 15 17 18 18 20 20 20 21 21 20 19 19 18 14 11 6 7 9 10 10 11
9 7 6 6 6 7 4 3 4 4 3 9 11 10 10 9 15 15 15 15 15 14 13 14 15 16 16 17 18 18 20 21 21 21 20 20 18 13 11 11 12 10 8 9
6 5 5 4 3 4 4 3 2 3 5 8 7 9 12 11 11 15 16 15 14 12 11 11 13 14 15 16 18 18 20 21 21 22 21 21 19 17 16 14 13 11 9 9
4 6 3 2 5 5 6 6 5 4 5 5 5 11 10 10 9 9 12 13 12 12 12 12 13 15 16 17 18 19 21 20 21 22 21 19 18 14 12 13 12 13 11 10
3 6 4 4 4 4 4 6 4 2 3 4 6 7 8 6 7 8 9 9 11 12 13 13 12 13 15 17 19 20 21 19 20 21 20 18 17 16 14 13 11 10 8 8
3 7 7 5 3 4 4 3 3 3 3 5 6 6 5 4 6 7 7 9 9 9 10 11 11 12 13 16 17 17 19 20 18 19 18 15 17 17 14 12 13 12 10 10
3 5 6 3 3 4 4 4 3 4 4 3 4 6 4 5 6 7 8 7 8 8 9 9 10 10 11 11 13 15 15 15 16 17 16 15 15 15 14 13 14 13 11 11
3 3 5 7 6 4 4 6 5 4 5 4 4 9 4 4 5 5 7 7 6 6 6 6 7 7 8 10 11 13 14 14 15 15 15 15 14 14 14 14 13 12 12 12
2 2 4 5 3 2 3 4 5 4 3 5 6 10 6 9 10 8 8 8 7 5 3 4 5 7 8 9 10 11 12 13 13 13 14 14 14 14 15 14 12 12 12 11
4 3 5 6 5 4 6 8 7 7 6 7 10 12 14 13 12 11 10 8 6 4 2 2 4 6 7 8 9 10 10 10 11 12 13 14 14 14 14 13 12 12 12 12
1 4 6 10 11 10 11 13 11 13 12 10 10 12 13 12 10 9 8 7 6 4 3 1 2 3 5 6 7 8 9 9 10 12 12 12 12 12 12 12 12 11 11 11
1 4 5 9 10 11 15 15 14 14 14 13 13 15 11 9 7 7 6 6 6 5 4 3 2 3 4 6 7 8 9 9 10 11 11 10 11 11 12 12 12 12 11 11
3 3 3 6 6 7 11 11 13 11 10 9 12 12 8 9 9 7 6 6 6 6 5 4 4 5 5 6 7 9 8 8 10 10 10 11 12 12 12 12 12 13 12 11
6 4 3 4 3 8 8 4 7 11 11 8 8 8 7 8 8 5 4 5 7 6 6 5 4 4 4 4 5 6 8 9 10 10 10 11 12 12 12 13 13 12 11 11
10 7 4 3 4 9 8 4 3 5 6 3 5 7 7 8 6 5 6 7 7 6 6 6 5 4 3 5 6 7 8 8 10 11 11 12 12 13 13 13 13 11 11 10
8 6 4 4 5 7 6 5 5 2 4 3 3 4 7 6 4 6 9 9 8 8 6 5 3 1 3 4 6 8 9 9 10 10 11 11 12 13 13 13 12 10 10 10
5 5 8 7 7 9 7 6 2 1 5 4 3 3 3 3 4 8 10 8 6 7 6 5 2 1 3 5 7 9 9 9 8 8 9 10 11 12 12 11 11 12 11 11
6 6 7 6 8 10 4 0 2 5 4 3 4 4 5 6 7 8 9 8 7 7 6 5 3 1 1 4 7 8 9 8 8 9 9 10 11 10 11 13 12 12 13 12
7 8 6 8 9 5 3 5 5 4 4 4 5 6 6 7 8 8 8 7 6 6 5 4 3 1 1 3 5 8 7 8 9 9 10 10 11 10 11 13 13 12 11 10
5 4 4 6 8 7 6 5 5 5 6 7 6 7 6 8 8 8 7 7 6 5 5 4 3 2 2 2 3 5 7 9 10 10 10 10 11 11 11 10 10 11 11 11
7 4 5 9 8 7 7 6 6 7 7 8 8 7 7 8 9 8 7 7 6 5 5 3 3 3 3 3 3 4 7 10 10 10 9 9 10 11 10 8 7 9 8 11
7 8 8 10 8 6 8 7 7 9 9 9 9 9 8 8 9 8 8 7 6 6 5 4 4 4 3 3 4 5 7 10 11 10 9 9 9 9 9 9 7 7 8 12
Wind_Direction
241 212 221 217 222 248 255 254 254 253 258 247 245 250 250 240 235 234 232 222 220 219 215 204 198 193 188 185 184 183 181 179 176 178 180 182 186 185 186 187 183 182 180 177
257 242 238 232 242 253 254 256 260 271 254 256 257 257 256 241 232 228 229 227 222 224 220 209 201 194 190 188 188 186 185 182 183 186 187 184 176 179 181 182 185 185 182 180
236 254 251 238 241 247 253 249 249 259 281 261 266 267 253 248 237 233 229 226 223 219 217 211 203 198 192 191 190 189 189 186 187 183 171 154 146 150 175 189 191 191 186 183
257 258 254 252 241 235 252 248 257 261 264 262 227 259 254 240 239 235 233 229 226 223 218 212 204 199 196 194 192 191 189 188 187 180 178 177 182 188 193 187 186 186 187 185
258 262 253 253 241 224 243 249 254 263 253 263 242 249 263 222 231 232 230 228 226 221 215 211 205 200 198 194 191 191 190 189 187 185 185 186 192 194 175 168 176 184 189 188
260 258 246 244 244 221 244 231 270 261 240 247 231 229 260 226 221 226 228 227 226 221 217 213 208 199 199 194 190 189 188 190 187 187 188 190 191 183 172 178 184 186 187 190
302 274 240 228 252 216 194 163 214 225 217 240 209 218 247 236 224 221 225 227 226 221 215 211 207 198 196 192 190 188 188 190 189 189 191 194 193 188 187 186 188 187 186 192
301 293 259 224 223 213 208 188 196 217 224 259 210 227 249 244 234 229 229 230 228 224 220 213 206 200 195 192 190 188 190 190 189 191 194 194 192 191 194 191 189 192 195 195
275 279 288 280 253 198 200 213 216 253 270 258 238 256 282 261 252 242 239 235 230 226 222 216 207 200 196 191 191 190 190 190 190 192 193 192 191 192 192 189 188 191 190 184
245 277 287 284 269 228 210 195 172 201 231 249 259 247 238 259 261 257 247 244 243 238 226 216 207 200 198 194 190 189 191 191 190 190 191 192 192 192 189 185 189 190 186 181
247 260 293 307 243 225 191 205 211 210 230 237 263 266 230 237 267 274 261 257 251 245 232 216 206 200 193 186 186 187 188 188 188 189 189 188 189 189 185 187 189 188 184 183
260 248 271 262 261 256 225 212 196 210 237 239 257 269 275 289 296 298 296 290 283 263 239 214 201 187 182 183 182 185 186 185 187 187 185 186 185 183 184 187 186 182 183 184
277 245 298 316 319 311 256 230 219 231 242 231 238 264 307 333 332 331 325 317 309 296 259 208 190 181 181 183 184 184 183 185 182 179 181 182 181 182 184 184 180 178 177 177
280 218 216 237 258 272 270 266 245 226 235 244 243 272 301 319 324 327 327 324 320 309 299 209 190 183 182 182 183 181 180 179 176 175 177 181 182 181 181 177 174 175 174 174
270 249 244 256 264 264 263 264 255 238 233 239 257 270 283 298 306 311 316 322 323 323 319 263 205 187 179 178 177 177 175 174 173 173 176 179 177 172 169 169 170 170 170 171
227 257 267 269 264 263 268 260 247 246 242 247 264 272 283 297 311 318 322 322 319 318 311 291 252 205 189 185 180 173 173 173 170 172 174 168 164 165 167 167 165 164 164 163
233 228 265 271 281 287 261 241 232 231 228 232 252 265 303 317 315 308 312 317 315 309 301 282 248 219 209 193 181 176 171 164 166 169 166 164 163 165 165 161 161 163 162 157
207 208 232 268 294 248 252 265 239 242 244 239 257 279 294 299 299 288 310 319 312 308 301 291 264 233 214 190 172 160 156 160 162 163 163 163 162 161 160 160 162 160 156 157
197 192 215 238 255 272 283 276 255 243 259 290 281 296 310 312 314 308 330 325 306 295 290 288 271 229 191 174 162 154 156 158 162 167 167 166 162 159 159 161 160 153 149 148
186 183 204 226 245 252 270 299 294 238 266 320 323 330 341 353 327 305 324 321 318 320 321 310 299 222 175 173 160 158 162 165 172 173 169 163 160 159 160 158 152 145 144 142
179 197 215 226 242 263 275 302 4 169 268 296 296 303 325 332 282 294 307 309 313 316 319 327 308 223 195 173 165 167 168 177 172 159 156 155 156 155 152 145 143 141 137 135
199 203 209 207 229 251 277 325 194 239 272 276 278 277 285 290 296 302 307 309 318 327 326 328 323 293 199 170 170 173 178 168 151 149 152 153 151 148 146 142 141 141 140 138
216 206 203 208 227 248 241 228 245 245 259 271 271 271 270 280 290 299 306 307 307 311 313 313 302 284 223 177 176 179 173 153 150 151 153 152 148 146 147 147 145 145 146 144
256 227 223 252 258 266 274 273 274 274 272 275 275 275 270 275 284 291 298 299 298 298 302 307 297 254 233 200 187 180 164 155 154 155 154 153 151 148 148 147 150 153 155 152
233 244 241 253 266 285 274 267 274 285 285 287 289 279 269 274 282 283 287 285 283 285 288 286 272 245 226 199 185 171 162 157 156 156 155 155 152 149 148 146 152 156 163 164
213 218 231 250 252 252 270 277 282 287 287 287 288 288 283 271 272 277 279 276 274 272 272 273 270 249 223 196 187 175 169 161 159 157 158 157 152 148 145 138 118 108 126 139